Location: Casteau
(50.5142°N, 4.0161°E)
Time: 01:46:11
(UTC+00:00)

Transit 2A - Pass Details

Date: 31 July 2021
Orbit: 594 x 964 km, 66.7° (Epoch: 21 September)

Event Time Altitude Azimuth Distance (km) Brightness Sun altitude
Rises 09:15:29 0° 283° (WNW) 2,935 8.6 45.4°
Reaches altitude 10° 09:18:37 10° 307° (NW) 2,085 7.9 45.8°
Maximum altitude 09:21:24 15° 343° (NNW) 1,811 7.8 46.2°
Drops below altitude 10° 09:24:19 10° 19° (NNE) 2,213 8.4 46.6°
Sets 09:27:49 0° 42° (NE) 3,224 9.3 47.0°
